Dewpoint
9 9 9 9 9 10 10 9 10 10 9 6 6 3 6 3 2 3 5 3 2 1 4 6 5 6 6 7 8 7 7 6 2 -0 -0 -0 -0 0 1 1 1 1 -0
8 9 8 9 9 9 9 9 9 9 8 7 4 4 8 6 4 4 4 3 2 3 6 7 7 7 7 8 8 8 7 6 3 0 -0 0 0 1 2 2 1 1 0
7 8 9 9 8 9 8 9 9 8 8 6 4 3 4 5 7 4 3 2 4 4 4 6 6 7 7 8 8 8 7 7 5 1 0 1 1 1 2 2 1 1 1
2 7 8 8 9 9 8 7 7 8 8 6 4 5 4 4 4 5 4 3 3 4 4 5 7 7 8 8 8 8 8 7 6 3 1 1 1 1 1 1 1 1 1
2 0 6 7 7 7 7 7 7 7 7 7 7 6 5 5 6 5 3 3 3 4 4 4 7 7 7 7 8 8 8 8 5 4 2 2 2 2 3 2 1 -1 -2
4 0 1 7 6 6 6 5 4 5 6 6 5 4 3 3 4 3 3 3 3 3 3 2 3 5 7 7 8 8 9 8 6 4 2 2 3 3 3 2 2 -0 -2
5 3 1 4 5 5 5 3 4 3 4 5 4 3 4 4 4 3 3 2 2 2 2 0 2 5 7 7 8 9 9 8 6 5 3 3 3 4 3 3 4 -1 -2
4 3 1 1 4 1 0 1 1 1 2 3 3 3 3 3 4 3 3 2 1 -1 -2 1 4 5 6 7 7 9 9 8 6 4 4 5 5 5 4 5 1 -2 0
5 4 3 0 -1 2 0 0 1 1 2 2 2 1 0 1 1 -0 -0 0 2 3 5 5 4 5 7 7 8 9 9 9 8 5 6 5 5 4 3 4 -0 3 1
5 5 5 4 2 -1 1 1 2 3 4 4 4 4 5 5 5 5 6 6 6 6 6 7 7 6 6 8 8 8 9 9 8 6 6 6 5 4 4 2 3 3 1
4 4 4 5 5 3 2 2 2 2 3 5 7 7 8 8 8 7 7 7 8 8 7 7 8 8 9 9 8 9 9 9 7 6 6 6 5 4 4 3 3 0 -2
2 3 3 5 6 6 6 4 3 2 2 2 4 4 5 7 8 8 9 9 9 9 9 8 8 9 10 9 8 9 9 9 8 6 6 6 5 4 4 2 -0 -1 -2
4 3 5 6 6 6 7 7 6 5 4 4 4 4 5 5 5 6 7 8 9 10 10 9 8 8 10 9 9 8 8 7 6 6 6 5 4 4 2 0 -1 -1 -2
0 1 3 4 3 4 5 5 6 6 7 6 7 7 6 6 6 6 7 8 10 9 4 5 5 7 9 9 8 8 8 8 7 6 6 5 4 2 1 -1 -1 -1 -2
-4 -2 1 1 1 3 3 3 4 5 6 7 7 7 8 8 8 8 9 9 9 10 7 6 6 6 9 9 8 7 8 7 6 5 4 3 2 2 -0 -1 -1 -2 -4
-5 -4 -2 0 -0 -0 -0 1 1 2 4 6 7 8 8 9 9 9 10 10 10 11 10 7 9 8 9 9 8 7 7 5 4 4 3 2 1 -1 -1 -3 -3 -5 -8
-4 -4 -4 -4 -2 -0 1 1 2 4 6 7 8 8 8 9 9 10 10 10 10 10 9 8 9 9 9 8 8 7 5 4 4 2 1 0 -1 -3 -3 -6 -6 -10 -13
-4 -3 -4 -4 -3 0 2 3 4 5 6 7 8 8 9 9 10 10 10 10 9 9 9 9 8 8 7 7 4 4 3 3 2 -0 -0 -1 -2 -2 -5 -8 -9 -10 -12
-4 -3 -3 -3 -2 -1 2 4 6 7 8 9 9 10 10 10 10 9 9 9 9 9 8 8 7 5 4 4 4 3 3 1 -0 -1 -2 -1 -2 -5 -7 -9 -17 -25 -30
-2 -2 -2 -1 1 2 4 6 9 9 10 10 10 10 10 9 8 9 8 8 8 7 5 4 4 4 4 3 2 2 -0 -0 -1 -2 -2 -5 -6 -10 -19 -24 -32 -36 -35
-3 -1 0 2 4 7 8 9 10 10 10 9 9 9 8 7 7 7 7 7 6 5 4 4 3 2 1 1 0 -0 -2 -3 -3 -4 -7 -11 -16 -20 -27 -34 -35 -32 -31
1 3 4 6 8 9 9 9 9 9 8 8 7 6 6 5 5 6 6 5 4 4 3 2 1 0 -0 -1 -2 -3 -3 -4 -5 -9 -13 -16 -21 -29 -33 -34 -33 -28 -21
5 6 7 8 8 8 8 8 7 7 6 6 5 4 4 4 4 4 4 3 2 1 0 0 -0 -2 -3 -3 -3 -4 -5 -6 -11 -13 -15 -20 -21 -20 -29 -28 -22 -19 -19
6 7 7 7 6 5 5 6 5 5 4 4 4 3 3 3 2 2 1 1 0 -0 -2 -3 -3 -3 -4 -5 -6 -6 -8 -9 -7 -10 -11 -11 -22 -27 -24 -21 -18 -17 -17
7 7 7 6 5 5 4 4 4 4 3 2 2 1 1 1 1 0 -1 -2 -3 -4 -4 -4 -5 -5 -6 -6 -7 -8 -8 -8 -10 -13 -15 -15 -16 -19 -17 -16 -15 -15 -16
7 6 5 5 4 3 3 3 2 2 1 0 -1 -1 -1 -1 -2 -3 -3 -3 -3 -3 -4 -5 -6 -7 -8 -8 -8 -9 -10 -10 -11 -11 -12 -12 -14 -15 -15 -14 -14 -15 -16
Wind_Speed
8 9 10 13 13 17 19 20 32 34 38 38 43 41 37 39 40 33 28 26 29 26 21 22 22 22 23 24 19 19 18 17 17 15 15 14 14 13 13 13 13 13 12
10 10 13 15 16 15 17 25 29 33 38 41 42 39 37 41 37 35 31 30 33 29 22 21 23 25 25 22 23 23 23 20 20 21 17 12 18 19 19 19 19 16 16
14 16 18 19 18 18 20 22 27 29 28 35 39 37 40 37 32 38 37 38 32 32 28 24 27 28 25 27 26 27 26 25 25 24 19 10 12 13 21 22 22 21 20
17 17 20 21 23 23 19 17 18 24 28 36 39 39 42 43 40 39 38 37 35 35 30 26 27 27 28 27 27 28 29 29 29 28 30 27 17 11 9 16 19 22 26
23 21 22 25 23 23 19 20 22 23 25 30 32 32 39 39 38 40 39 36 35 34 30 29 28 27 27 28 30 31 32 31 32 32 32 33 32 28 23 17 18 19 20
30 25 22 24 24 22 23 24 25 26 28 30 31 34 37 37 37 39 41 41 38 35 35 34 33 32 32 33 32 35 34 32 34 33 33 34 32 30 27 23 22 20 21
36 32 31 31 30 32 32 32 33 32 33 36 36 41 39 38 40 39 42 43 41 40 41 39 39 37 35 34 34 36 34 34 36 35 35 36 33 32 21 23 23 22 21
38 37 35 33 33 36 35 35 35 33 35 39 41 41 40 38 40 39 39 40 41 42 41 40 39 38 37 37 36 36 36 35 38 40 38 38 37 31 30 30 24 22 23
39 41 39 38 36 37 39 38 37 37 39 40 40 41 39 40 42 40 38 40 41 40 37 35 39 40 39 39 38 40 39 39 39 41 33 38 33 27 31 32 27 26 23
37 40 41 42 42 42 42 42 43 44 44 44 45 44 43 44 44 41 42 42 39 38 38 38 38 42 42 41 40 42 38 42 41 41 34 35 32 27 29 29 30 26 24
37 39 43 45 46 44 46 49 49 49 48 47 47 46 46 45 43 43 44 43 42 43 42 44 45 41 41 40 38 40 40 41 39 44 34 32 33 29 28 27 25 22 20
33 35 37 41 44 46 49 51 52 53 53 51 49 50 47 47 46 46 45 45 47 48 46 43 47 39 39 38 40 41 40 38 38 40 37 34 33 29 26 23 23 22 22
29 30 32 37 40 42 44 47 50 53 54 53 52 52 52 51 51 48 46 46 47 46 46 28 39 40 38 38 38 36 37 36 36 37 36 34 28 27 24 23 23 23 25
27 31 32 33 34 36 37 39 42 45 48 51 50 50 51 51 48 47 48 47 47 40 26 34 36 37 37 32 34 36 39 42 39 38 33 28 26 23 21 23 24 25 27
21 27 32 33 31 33 33 34 33 36 38 42 44 46 47 49 47 46 43 43 44 40 39 34 34 32 39 34 33 33 37 43 40 34 29 23 22 22 24 25 25 27 28
26 25 26 29 30 30 30 30 31 31 33 35 38 39 39 39 40 39 40 40 37 38 39 33 31 34 40 38 34 34 38 35 22 23 22 21 20 22 24 25 26 29 30
25 22 19 24 29 32 31 29 30 31 32 33 34 33 33 33 34 33 29 27 26 30 29 28 31 36 39 39 32 33 30 28 26 22 20 19 22 23 25 26 27 28 28
24 19 19 18 21 26 28 30 30 29 29 28 26 26 28 29 27 23 19 19 23 21 24 29 34 35 30 30 27 24 19 18 18 16 19 21 23 25 25 26 26 28 29
20 19 14 10 10 13 17 21 25 25 23 21 22 21 20 18 14 13 16 19 21 20 24 28 31 24 23 20 21 21 21 18 18 18 21 25 23 23 25 26 27 27 26
14 13 10 8 8 8 12 14 14 15 14 13 12 10 9 9 10 13 15 18 20 20 19 18 18 19 19 18 18 17 14 18 18 19 18 18 20 22 23 23 24 25 26
12 10 8 7 6 7 8 8 8 7 6 6 7 7 8 11 11 12 13 14 15 17 21 22 21 18 17 18 18 18 16 15 16 15 15 17 18 18 19 21 23 25 27
14 11 9 9 8 7 6 6 6 6 7 7 7 9 9 9 9 11 11 12 16 19 18 17 18 19 18 18 16 14 14 12 13 15 15 16 18 18 23 23 23 23 23
13 12 11 12 10 6 4 4 6 6 8 9 8 7 7 6 7 8 12 14 14 13 14 16 17 15 13 11 12 11 11 13 15 16 18 21 23 26 25 21 20 22 24
15 15 14 13 11 9 7 6 8 5 4 5 5 5 6 7 9 10 10 10 11 13 13 11 9 7 6 7 11 13 15 17 20 20 21 24 23 20 19 18 21 22 23
17 16 15 14 13 11 10 9 7 4 5 5 5 6 8 10 12 12 12 12 12 8 3 3 6 9 11 13 13 16 21 21 20 18 18 18 17 16 17 18 20 22 23
20 19 17 16 17 14 13 12 11 8 6 8 10 11 11 12 11 8 6 3 6 10 13 13 10 12 15 19 20 17 15 17 19 18 18 17 17 17 18 20 21 21 21
Wind_Direction
181 180 203 195 207 197 201 180 171 177 180 179 175 180 178 178 178 184 184 183 187 206 199 197 203 209 213 219 218 215 217 218 215 214 221 231 240 246 252 254 254 262 275
187 183 198 205 200 194 193 194 189 185 189 185 183 186 184 188 193 192 187 192 211 209 206 209 215 217 220 223 227 227 223 226 227 220 224 232 241 247 249 253 255 255 263
198 188 200 203 204 200 193 190 198 193 199 191 190 198 197 205 193 195 198 202 211 215 216 220 226 228 228 232 232 231 231 237 233 230 229 219 230 236 242 246 248 251 256
220 204 193 197 198 199 198 190 193 198 201 200 200 207 208 202 204 199 203 208 215 212 213 226 232 233 235 235 234 235 237 242 241 235 232 232 239 216 227 242 245 247 252
218 214 202 197 199 203 199 194 191 193 196 198 207 213 210 205 206 203 211 216 214 215 226 233 236 239 239 238 237 234 237 245 244 241 237 235 239 244 249 244 251 248 247
218 218 212 205 209 204 201 196 191 191 196 204 209 207 205 210 212 215 214 214 219 229 234 237 242 241 243 241 241 238 242 246 246 245 244 246 242 242 243 246 254 255 250
212 213 211 207 205 204 201 198 199 196 198 204 205 207 208 212 214 214 216 219 223 224 229 234 239 242 245 246 245 243 245 246 244 246 245 246 241 247 248 258 269 258 262
215 213 214 213 207 204 204 203 202 198 202 206 208 209 210 211 215 214 216 220 226 233 237 239 242 243 247 250 249 243 244 247 245 242 245 253 242 242 254 263 259 257 265
221 220 215 216 215 213 213 210 208 208 210 212 213 215 216 218 222 224 227 232 237 239 243 246 246 245 246 249 248 247 246 249 249 242 254 249 240 249 262 254 244 259 259
226 226 225 221 219 220 218 219 218 217 216 217 220 222 224 228 231 233 235 237 240 242 245 249 250 247 246 246 249 247 246 249 250 248 254 250 241 260 263 242 253 257 263
225 229 231 230 230 223 223 222 222 222 223 225 227 229 232 234 237 240 243 245 248 250 251 252 254 253 244 244 249 244 245 250 250 246 250 252 243 260 253 248 254 251 261
225 227 231 233 230 232 229 228 226 227 228 229 232 236 238 240 242 244 246 250 253 254 254 254 258 260 249 244 244 243 243 249 250 248 243 243 246 248 249 248 247 255 265
232 230 230 230 234 235 236 236 236 233 234 234 237 242 245 244 245 248 250 254 257 258 258 254 259 250 258 250 246 244 241 242 247 246 240 239 239 246 239 246 249 260 263
225 224 229 231 234 237 239 241 241 244 242 239 240 241 244 247 250 251 252 255 256 268 264 239 249 247 252 242 242 240 241 242 244 239 235 231 237 237 244 244 254 259 263
224 232 227 227 230 233 236 240 242 243 244 245 244 246 246 249 252 254 255 258 260 255 256 259 259 250 243 237 233 240 244 243 237 227 228 231 231 243 246 251 257 263 268
229 213 220 224 224 230 234 237 238 240 242 244 246 247 248 251 254 255 254 258 261 256 252 256 252 252 241 237 234 242 243 232 223 228 221 232 243 240 245 252 264 268 272
209 210 218 227 226 230 234 235 237 239 240 241 245 250 251 251 252 254 258 261 259 247 264 261 252 239 243 233 235 239 227 215 215 224 233 236 236 242 252 259 266 271 275
208 214 221 226 230 231 233 236 237 238 240 240 245 248 250 250 253 258 263 248 259 262 256 245 237 234 231 229 221 209 212 228 230 219 225 232 243 252 259 266 271 275 278
205 207 206 217 232 242 249 246 239 235 233 234 235 239 245 254 251 244 249 256 244 240 239 248 236 226 206 199 209 217 215 212 224 231 228 246 259 264 272 277 281 282 284
167 180 194 211 224 235 243 250 240 231 229 233 244 248 241 234 243 240 252 237 238 244 237 207 196 199 208 212 213 211 219 229 228 238 255 257 266 275 280 285 287 289 290
172 178 186 191 199 206 213 214 210 208 211 216 208 209 232 247 243 249 238 243 233 210 201 203 200 203 209 213 216 221 219 232 248 253 260 271 277 280 285 290 296 295 295
166 166 173 170 164 171 185 190 194 203 208 217 223 232 225 233 242 245 234 221 211 207 206 209 206 203 206 212 212 219 238 251 263 271 275 280 286 295 294 291 290 290 291
157 154 159 152 146 150 164 201 188 197 210 201 206 231 233 217 209 208 198 196 199 205 204 203 200 200 201 217 239 253 274 285 286 291 298 301 304 302 300 295 289 292 297
154 161 160 151 145 146 146 151 164 183 203 201 170 172 178 180 183 189 192 201 194 194 186 181 190 218 243 277 292 289 279 278 288 294 298 298 294 294 295 294 293 295 297
166 166 165 156 144 145 134 127 127 133 148 155 169 187 196 196 200 194 180 180 165 163 183 257 294 289 275 266 265 273 285 294 299 303 299 300 300 293 290 292 296 300 302
163 161 155 154 142 143 141 147 156 179 201 181 172 167 175 179 178 175 189 224 267 276 280 276 274 273 278 284 287 293 300 301 301 302 305 304 301 297 295 295 298 300 303
Height
1455 1457 1460 1461 1463 1464 1467 1470 1471 1475 1481 1485 1490 1495 1498 1502 1508 1517 1521 1524 1529 1531 1533 1536 1539 1542 1544 1548 1550 1552 1554 1556 1556 1559 1561 1560 1562 1562 1562 1564 1565 1565 1565
1452 1454 1458 1459 1463 1466 1468 1471 1474 1478 1481 1484 1490 1495 1498 1502 1509 1515 1519 1523 1527 1528 1531 1534 1537 1540 1542 1545 1546 1548 1552 1554 1555 1555 1557 1558 1559 1558 1559 1561 1562 1562 1562
1449 1453 1455 1459 1459 1462 1467 1469 1473 1477 1482 1486 1491 1498 1500 1504 1508 1512 1517 1520 1523 1525 1528 1532 1534 1537 1539 1541 1542 1545 1547 1550 1551 1551 1554 1554 1553 1553 1554 1556 1557 1558 1558
1445 1448 1452 1454 1458 1463 1465 1466 1471 1475 1481 1488 1492 1494 1497 1501 1506 1510 1514 1516 1518 1522 1524 1529 1532 1533 1534 1537 1538 1541 1543 1544 1546 1548 1547 1547 1547 1548 1549 1550 1550 1552 1553
1443 1444 1447 1454 1457 1461 1462 1466 1470 1472 1478 1483 1487 1490 1493 1498 1503 1507 1509 1511 1515 1520 1522 1523 1529 1529 1529 1533 1534 1534 1537 1538 1541 1541 1542 1543 1543 1544 1545 1546 1547 1547 1548
1442 1444 1447 1451 1454 1457 1460 1463 1466 1470 1474 1479 1483 1486 1490 1494 1498 1502 1504 1508 1513 1515 1518 1519 1522 1524 1525 1527 1529 1529 1531 1534 1536 1537 1537 1539 1540 1540 1541 1542 1542 1543 1544
1439 1442 1443 1446 1449 1452 1457 1461 1466 1465 1470 1475 1478 1483 1486 1491 1494 1497 1500 1502 1506 1508 1510 1514 1516 1517 1519 1520 1521 1523 1526 1527 1529 1531 1531 1531 1530 1537 1536 1538 1538 1537 1538
1432 1436 1439 1444 1447 1450 1453 1456 1458 1460 1466 1470 1473 1479 1482 1484 1488 1491 1494 1497 1500 1502 1506 1508 1510 1513 1512 1514 1516 1517 1519 1521 1523 1523 1525 1526 1525 1527 1530 1532 1533 1532 1531
1425 1429 1435 1439 1444 1447 1449 1452 1455 1459 1464 1468 1473 1475 1478 1479 1483 1485 1488 1491 1495 1497 1500 1501 1503 1505 1506 1507 1508 1509 1511 1514 1515 1515 1516 1519 1521 1523 1524 1525 1525 1525 1524
1420 1425 1429 1434 1437 1441 1447 1451 1455 1458 1463 1467 1469 1471 1473 1476 1479 1481 1482 1485 1488 1491 1492 1495 1496 1497 1497 1498 1499 1502 1505 1507 1508 1509 1511 1513 1515 1515 1517 1518 1519 1518 1518
1414 1417 1420 1425 1429 1438 1440 1444 1449 1453 1458 1461 1464 1466 1467 1471 1474 1475 1476 1479 1483 1484 1486 1488 1489 1488 1488 1484 1491 1493 1496 1498 1500 1501 1505 1507 1509 1509 1509 1511 1512 1513 1512
1409 1411 1414 1419 1424 1427 1433 1436 1441 1443 1447 1452 1457 1457 1461 1465 1467 1468 1470 1474 1475 1475 1476 1479 1481 1475 1477 1483 1482 1486 1488 1490 1492 1495 1496 1498 1500 1502 1504 1505 1506 1508 1508
1410 1411 1414 1416 1418 1421 1425 1428 1432 1435 1441 1445 1448 1451 1452 1455 1456 1460 1464 1466 1468 1471 1464 1462 1469 1469 1475 1475 1475 1478 1480 1483 1485 1486 1488 1491 1493 1495 1496 1498 1500 1501 1502
1406 1407 1409 1412 1414 1416 1419 1421 1423 1425 1430 1435 1439 1442 1443 1444 1449 1454 1456 1459 1458 1463 1460 1463 1464 1463 1465 1468 1470 1472 1475 1476 1478 1480 1481 1484 1485 1488 1489 1492 1494 1495 1496
1402 1404 1405 1407 1409 1412 1414 1416 1418 1421 1423 1425 1429 1431 1436 1440 1444 1448 1450 1451 1452 1454 1455 1456 1456 1457 1459 1462 1465 1468 1469 1469 1470 1474 1476 1478 1478 1480 1485 1487 1488 1488 1488
1395 1398 1400 1403 1406 1407 1409 1410 1412 1415 1417 1419 1422 1425 1430 1433 1437 1440 1442 1444 1445 1446 1447 1447 1448 1452 1452 1455 1459 1461 1461 1463 1468 1470 1471 1472 1474 1477 1479 1481 1481 1481 1481
1391 1393 1396 1398 1400 1402 1405 1408 1410 1411 1413 1416 1419 1423 1426 1429 1430 1433 1436 1438 1440 1442 1443 1443 1443 1444 1447 1448 1451 1453 1455 1457 1459 1465 1467 1467 1471 1471 1473 1473 1474 1474 1474
1387 1389 1392 1394 1397 1399 1402 1404 1406 1408 1410 1413 1417 1420 1422 1424 1426 1428 1431 1433 1435 1435 1435 1436 1437 1438 1440 1443 1447 1447 1451 1457 1458 1460 1462 1465 1466 1466 1467 1467 1466 1466 1466
1383 1387 1390 1393 1396 1398 1399 1400 1403 1405 1407 1411 1414 1416 1419 1422 1424 1426 1428 1430 1430 1431 1432 1434 1433 1436 1438 1439 1446 1447 1449 1450 1454 1456 1458 1460 1461 1462 1462 1461 1459 1458 1457
1383 1387 1390 1393 1395 1397 1398 1399 1401 1404 1407 1410 1413 1415 1417 1419 1422 1424 1426 1427 1427 1428 1429 1431 1434 1435 1438 1441 1444 1445 1450 1449 1449 1452 1453 1456 1457 1457 1455 1454 1453 1450 1449
1383 1387 1391 1393 1396 1397 1398 1400 1403 1405 1409 1411 1414 1416 1418 1419 1421 1422 1423 1425 1426 1427 1429 1431 1433 1435 1436 1438 1440 1441 1443 1447 1449 1450 1450 1450 1450 1449 1448 1446 1444 1442 1441
1382 1386 1389 1393 1395 1398 1400 1402 1405 1407 1409 1411 1413 1415 1416 1418 1419 1420 1422 1423 1424 1426 1428 1429 1430 1432 1434 1435 1437 1440 1442 1444 1445 1447 1446 1445 1443 1441 1441 1440 1438 1436 1436
1383 1387 1390 1392 1395 1398 1401 1403 1406 1408 1409 1410 1413 1415 1416 1417 1419 1420 1422 1423 1425 1427 1428 1429 1430 1432 1434 1437 1437 1438 1439 1441 1442 1442 1440 1439 1438 1437 1435 1433 1433 1432 1430
1384 1386 1389 1392 1394 1398 1400 1404 1406 1410 1412 1414 1415 1417 1418 1420 1421 1423 1424 1425 1427 1428 1429 1430 1432 1433 1435 1435 1436 1436 1436 1436 1436 1435 1433 1433 1432 1430 1429 1428 1427 1426 1425
1383 1387 1389 1392 1394 1399 1402 1406 1409 1412 1414 1416 1417 1418 1419 1420 1421 1423 1424 1425 1426 1428 1430 1431 1432 1433 1432 1432 1432 1431 1431 1430 1429 1429 1428 1427 1427 1426 1425 1423 1422 1421 1419
1384 1387 1391 1394 1397 1400 1404 1408 1411 1413 1414 1415 1417 1419 1420 1421 1423 1425 1427 1429 1430 1430 1430 1429 1429 1430 1430 1430 1429 1427 1427 1426 1424 1423 1423 1422 1421 1421 1419 1417 1416 1415 1413